QPF
0.01 0.01 0.02 0.02 0.02 0.02 0.01 0.01 0.03 0.04 0.06 0.05 0.04 0.05 0.05 0.06 0.07 0.10 0.07 0.04 0.02 0.02 0.02 0.01 0.01 0.01 0.01 0.01 0.01 0.02 0.01 0.01 0.01 0.01 0.01 0.01 0.02 0.02 0.01 0.01 0.01 0.01 0.01
0.01 0.01 0.03 0.03 0.02 0.02 0.02 0.01 0.03 0.03 0.03 0.03 0.03 0.04 0.05 0.04 0.04 0.07 0.05 0.02 0.01 0.02 0.02 0.02 0.01 0.01 0.02 0.02 0.01 0.02 0.02 0.02 0.01 0.01 0.01 0.01 0.01 0.01 0.02 0.02 0.01 0.01 0.00
0.01 0.01 0.02 0.02 0.02 0.02 0.02 0.03 0.03 0.03 0.03 0.02 0.03 0.04 0.03 0.03 0.03 0.04 0.03 0.02 0.01 0.01 0.01 0.02 0.01 0.01 0.03 0.03 0.02 0.02 0.03 0.02 0.01 0.01 0.01 0.01 0.01 0.01 0.01 0.01 0.01 0.01 0.00
0.00 0.01 0.01 0.01 0.01 0.01 0.02 0.02 0.02 0.02 0.03 0.03 0.03 0.05 0.04 0.04 0.03 0.02 0.01 0.01 0.01 0.00 0.01 0.02 0.02 0.01 0.01 0.02 0.03 0.03 0.04 0.02 0.01 0.01 0.01 0.01 0.01 0.01 0.01 0.01 0.01 0.01 0.00
0.01 0.01 0.02 0.01 0.01 0.01 0.01 0.02 0.03 0.03 0.02 0.03 0.03 0.04 0.05 0.05 0.03 0.02 0.02 0.02 0.01 0.00 0.00 0.01 0.01 0.01 0.00 0.01 0.02 0.02 0.03 0.03 0.03 0.03 0.01 0.01 0.01 0.01 0.01 0.01 0.01 0.01 0.01
0.01 0.02 0.02 0.02 0.02 0.02 0.02 0.04 0.04 0.04 0.03 0.03 0.03 0.04 0.05 0.04 0.02 0.02 0.02 0.02 0.01 0.01 0.01 0.00 0.01 0.00 0.01 0.01 0.01 0.02 0.02 0.04 0.04 0.04 0.03 0.02 0.01 0.01 0.01 0.01 0.01 0.01 0.01
0.02 0.03 0.04 0.03 0.03 0.03 0.02 0.03 0.04 0.04 0.03 0.02 0.04 0.05 0.07 0.06 0.04 0.03 0.02 0.02 0.02 0.01 0.01 0.01 0.01 0.00 0.00 0.01 0.01 0.02 0.03 0.05 0.04 0.03 0.03 0.02 0.03 0.02 0.01 0.01 0.01 0.01 0.01
0.03 0.03 0.04 0.04 0.03 0.03 0.02 0.03 0.02 0.03 0.02 0.02 0.03 0.03 0.04 0.06 0.07 0.05 0.03 0.03 0.03 0.02 0.02 0.02 0.01 0.00 0.00 0.00 0.00 0.01 0.02 0.02 0.02 0.02 0.02 0.02 0.02 0.02 0.01 0.01 0.01 0.01 0.01
0.04 0.03 0.03 0.03 0.02 0.02 0.01 0.03 0.02 0.01 0.02 0.02 0.02 0.01 0.01 0.02 0.02 0.03 0.02 0.03 0.04 0.04 0.03 0.03 0.02 0.01 0.00 0.00 0.00 0.00 0.01 0.01 0.01 0.02 0.03 0.02 0.02 0.02 0.01 0.01 0.01 0.01 0.01
0.08 0.07 0.06 0.04 0.02 0.01 0.01 0.01 0.01 0.02 0.03 0.02 0.01 0.01 0.01 0.01 0.01 0.01 0.02 0.03 0.03 0.02 0.02 0.03 0.03 0.02 0.01 0.00 0.01 0.02 0.01 0.01 0.01 0.02 0.03 0.03 0.02 0.02 0.02 0.02 0.02 0.02 0.01
0.08 0.08 0.07 0.04 0.02 0.01 0.01 0.01 0.02 0.02 0.01 0.01 0.01 0.02 0.02 0.01 0.01 0.01 0.01 0.03 0.04 0.01 0.01 0.01 0.02 0.02 0.01 0.01 0.01 0.02 0.02 0.01 0.00 0.01 0.02 0.02 0.02 0.02 0.02 0.03 0.03 0.02 0.02
0.06 0.05 0.05 0.04 0.03 0.01 0.01 0.02 0.02 0.01 0.01 0.01 0.01 0.02 0.02 0.02 0.02 0.02 0.01 0.01 0.02 0.02 0.01 0.00 0.01 0.01 0.01 0.01 0.01 0.01 0.02 0.02 0.01 0.00 0.00 0.01 0.01 0.01 0.01 0.02 0.02 0.02 0.02
0.04 0.03 0.04 0.04 0.03 0.02 0.02 0.03 0.03 0.02 0.03 0.02 0.01 0.01 0.01 0.01 0.02 0.02 0.01 0.01 0.01 0.01 0.01 0.00 0.00 0.00 0.01 0.01 0.01 0.01 0.01 0.02 0.02 0.01 0.00 0.00 0.00 0.00 0.00 0.00 0.01 0.01 0.01
0.04 0.05 0.04 0.03 0.03 0.03 0.03 0.03 0.03 0.03 0.04 0.03 0.02 0.01 0.01 0.02 0.02 0.02 0.01 0.01 0.01 0.01 0.01 0.01 0.01 0.00 0.00 0.00 0.01 0.01 0.01 0.02 0.02 0.01 0.01 0.00 0.00 0.00 0.00 0.00 0.00 0.00 0.00
0.06 0.05 0.04 0.04 0.03 0.03 0.04 0.04 0.04 0.03 0.03 0.02 0.02 0.02 0.01 0.02 0.03 0.02 0.02 0.03 0.02 0.01 0.01 0.01 0.01 0.01 0.01 0.01 0.02 0.01 0.01 0.02 0.02 0.02 0.01 0.00 0.00 0.00 0.00 0.00 0.00 0.00 0.00
0.08 0.07 0.05 0.04 0.04 0.04 0.05 0.05 0.04 0.04 0.04 0.03 0.03 0.03 0.03 0.03 0.03 0.04 0.05 0.05 0.03 0.02 0.02 0.02 0.01 0.02 0.01 0.02 0.02 0.01 0.01 0.01 0.01 0.02 0.02 0.01 0.00 0.00 0.01 0.00 0.00 0.00 0.00
0.06 0.05 0.05 0.04 0.05 0.05 0.05 0.05 0.05 0.05 0.05 0.05 0.05 0.04 0.04 0.05 0.06 0.06 0.07 0.05 0.04 0.04 0.03 0.02 0.01 0.01 0.02 0.02 0.04 0.04 0.02 0.01 0.02 0.01 0.01 0.01 0.01 0.01 0.01 0.01 0.01 0.01 0.01
0.05 0.04 0.05 0.06 0.04 0.03 0.04 0.04 0.05 0.05 0.05 0.05 0.06 0.06 0.06 0.07 0.07 0.07 0.07 0.05 0.05 0.06 0.06 0.04 0.02 0.02 0.02 0.02 0.04 0.06 0.02 0.01 0.01 0.01 0.01 0.00 0.01 0.00 0.00 0.01 0.01 0.00 0.00
0.05 0.05 0.06 0.05 0.05 0.04 0.03 0.03 0.04 0.05 0.06 0.05 0.05 0.05 0.06 0.07 0.07 0.07 0.07 0.07 0.07 0.07 0.08 0.08 0.05 0.03 0.03 0.02 0.02 0.02 0.01 0.02 0.01 0.01 0.01 0.01 0.00 0.00 0.00 0.00 0.00 0.00 0.00
0.06 0.07 0.08 0.07 0.06 0.05 0.04 0.04 0.04 0.05 0.07 0.06 0.06 0.06 0.07 0.08 0.09 0.12 0.12 0.10 0.09 0.09 0.09 0.09 0.08 0.06 0.04 0.04 0.03 0.02 0.02 0.02 0.02 0.02 0.02 0.01 0.01 0.01 0.01 0.01 0.01 0.01 0.01
0.05 0.06 0.07 0.06 0.06 0.05 0.04 0.05 0.05 0.05 0.06 0.06 0.06 0.06 0.06 0.08 0.09 0.10 0.09 0.07 0.06 0.05 0.06 0.06 0.06 0.05 0.05 0.05 0.05 0.04 0.03 0.02 0.01 0.01 0.01 0.01 0.01 0.01 0.01 0.01 0.01 0.02 0.02
0.05 0.07 0.07 0.06 0.05 0.03 0.03 0.05 0.07 0.07 0.05 0.05 0.06 0.08 0.09 0.10 0.10 0.11 0.10 0.09 0.08 0.07 0.06 0.06 0.07 0.06 0.05 0.04 0.04 0.03 0.02 0.01 0.01 0.01 0.01 0.01 0.01 0.01 0.01 0.01 0.02 0.02 0.02
0.06 0.06 0.06 0.06 0.06 0.05 0.05 0.05 0.07 0.07 0.05 0.05 0.06 0.07 0.07 0.07 0.09 0.10 0.10 0.10 0.11 0.11 0.09 0.07 0.05 0.05 0.04 0.03 0.03 0.03 0.02 0.02 0.01 0.01 0.01 0.01 0.01 0.01 0.01 0.01 0.02 0.02 0.02
0.05 0.06 0.06 0.07 0.07 0.07 0.08 0.07 0.08 0.06 0.06 0.07 0.07 0.07 0.07 0.08 0.09 0.09 0.10 0.09 0.10 0.09 0.09 0.09 0.07 0.07 0.06 0.05 0.05 0.05 0.03 0.02 0.01 0.02 0.02 0.01 0.01 0.01 0.01 0.01 0.02 0.01 0.01
0.04 0.06 0.08 0.09 0.11 0.11 0.11 0.10 0.10 0.08 0.07 0.08 0.08 0.07 0.07 0.07 0.08 0.10 0.10 0.09 0.09 0.07 0.08 0.08 0.08 0.09 0.10 0.11 0.09 0.06 0.04 0.03 0.01 0.01 0.01 0.01 0.01 0.01 0.01 0.01 0.01 0.01 0.01
0.05 0.06 0.08 0.10 0.12 0.11 0.10 0.10 0.11 0.10 0.11 0.12 0.11 0.10 0.10 0.10 0.09 0.09 0.09 0.07 0.05 0.04 0.06 0.07 0.08 0.09 0.08 0.08 0.07 0.05 0.03 0.03 0.02 0.02 0.02 0.01 0.01 0.01 0.01 0.00 0.00 0.01 0.00
MSLP
1016.66 1016.75 1016.75 1016.69 1016.62 1016.57 1016.58 1016.65 1016.78 1016.95 1017.15 1017.34 1017.53 1017.70 1017.87 1018.03 1018.19 1018.35 1018.51 1018.65 1018.79 1018.90 1019.01 1019.11 1019.21 1019.33 1019.48 1019.64 1019.81 1020.00 1020.19 1020.38 1020.56 1020.75 1020.94 1021.15 1021.36 1021.58 1021.79 1021.97 1022.13 1022.24 1022.33
1016.65 1016.78 1016.81 1016.80 1016.76 1016.75 1016.77 1016.86 1017.01 1017.20 1017.41 1017.64 1017.85 1018.05 1018.22 1018.37 1018.51 1018.62 1018.72 1018.81 1018.90 1018.99 1019.10 1019.22 1019.36 1019.52 1019.70 1019.88 1020.06 1020.23 1020.39 1020.54 1020.69 1020.85 1021.04 1021.24 1021.47 1021.70 1021.93 1022.14 1022.30 1022.43 1022.51
1016.51 1016.68 1016.78 1016.82 1016.85 1016.89 1016.97 1017.09 1017.26 1017.47 1017.71 1017.95 1018.18 1018.39 1018.56 1018.69 1018.78 1018.83 1018.87 1018.91 1018.95 1019.02 1019.12 1019.26 1019.43 1019.63 1019.84 1020.04 1020.22 1020.38 1020.51 1020.62 1020.74 1020.87 1021.04 1021.24 1021.48 1021.73 1021.98 1022.21 1022.40 1022.54 1022.63
1016.27 1016.47 1016.63 1016.77 1016.88 1017.00 1017.14 1017.32 1017.53 1017.76 1018.01 1018.26 1018.50 1018.70 1018.85 1018.95 1019.00 1019.01 1018.99 1018.96 1018.96 1018.99 1019.08 1019.22 1019.41 1019.64 1019.87 1020.08 1020.26 1020.41 1020.51 1020.60 1020.68 1020.79 1020.94 1021.14 1021.39 1021.66 1021.94 1022.19 1022.40 1022.56 1022.67
1015.95 1016.19 1016.42 1016.64 1016.85 1017.07 1017.29 1017.52 1017.77 1018.03 1018.29 1018.54 1018.77 1018.97 1019.10 1019.18 1019.20 1019.16 1019.09 1019.01 1018.96 1018.95 1019.01 1019.14 1019.33 1019.56 1019.79 1020.01 1020.19 1020.33 1020.41 1020.48 1020.54 1020.64 1020.78 1020.98 1021.23 1021.51 1021.80 1022.08 1022.31 1022.49 1022.62
1015.60 1015.87 1016.17 1016.48 1016.79 1017.10 1017.40 1017.69 1017.97 1018.25 1018.52 1018.77 1019.00 1019.19 1019.32 1019.39 1019.38 1019.32 1019.21 1019.09 1018.99 1018.94 1018.96 1019.06 1019.22 1019.43 1019.66 1019.87 1020.04 1020.16 1020.25 1020.30 1020.36 1020.45 1020.59 1020.79 1021.04 1021.33 1021.62 1021.91 1022.15 1022.34 1022.49
1015.29 1015.58 1015.93 1016.31 1016.71 1017.10 1017.47 1017.81 1018.12 1018.41 1018.68 1018.94 1019.17 1019.36 1019.50 1019.58 1019.58 1019.51 1019.39 1019.24 1019.10 1019.00 1018.97 1019.02 1019.13 1019.30 1019.50 1019.68 1019.85 1019.97 1020.05 1020.11 1020.18 1020.27 1020.41 1020.61 1020.86 1021.14 1021.43 1021.71 1021.95 1022.14 1022.29
1015.05 1015.35 1015.74 1016.17 1016.63 1017.08 1017.50 1017.87 1018.20 1018.50 1018.78 1019.03 1019.27 1019.48 1019.64 1019.74 1019.77 1019.72 1019.61 1019.45 1019.28 1019.14 1019.05 1019.03 1019.09 1019.20 1019.35 1019.50 1019.65 1019.77 1019.86 1019.94 1020.03 1020.14 1020.29 1020.48 1020.72 1020.98 1021.25 1021.50 1021.72 1021.90 1022.03
1014.90 1015.20 1015.61 1016.07 1016.57 1017.05 1017.49 1017.88 1018.22 1018.51 1018.78 1019.04 1019.28 1019.52 1019.72 1019.86 1019.94 1019.93 1019.84 1019.69 1019.51 1019.33 1019.19 1019.10 1019.09 1019.13 1019.23 1019.34 1019.47 1019.59 1019.70 1019.80 1019.91 1020.04 1020.20 1020.39 1020.61 1020.85 1021.08 1021.29 1021.48 1021.62 1021.73
1014.82 1015.12 1015.52 1016.00 1016.51 1017.00 1017.44 1017.83 1018.16 1018.44 1018.70 1018.95 1019.21 1019.46 1019.70 1019.90 1020.03 1020.07 1020.03 1019.90 1019.72 1019.53 1019.34 1019.20 1019.11 1019.09 1019.13 1019.20 1019.31 1019.42 1019.54 1019.67 1019.80 1019.95 1020.12 1020.31 1020.51 1020.72 1020.91 1021.07 1021.21 1021.32 1021.39
1014.76 1015.05 1015.45 1015.93 1016.43 1016.91 1017.35 1017.72 1018.03 1018.29 1018.53 1018.77 1019.03 1019.31 1019.58 1019.83 1020.01 1020.11 1020.12 1020.03 1019.87 1019.67 1019.46 1019.27 1019.13 1019.05 1019.03 1019.07 1019.14 1019.25 1019.38 1019.52 1019.67 1019.84 1020.01 1020.19 1020.38 1020.55 1020.69 1020.81 1020.91 1020.97 1021.02
1014.66 1014.95 1015.35 1015.81 1016.30 1016.78 1017.20 1017.55 1017.84 1018.08 1018.30 1018.53 1018.78 1019.07 1019.36 1019.64 1019.87 1020.02 1020.08 1020.04 1019.92 1019.73 1019.52 1019.31 1019.13 1019.01 1018.94 1018.93 1018.98 1019.06 1019.18 1019.32 1019.48 1019.65 1019.83 1020.00 1020.16 1020.30 1020.41 1020.49 1020.54 1020.57 1020.59
1014.47 1014.77 1015.17 1015.64 1016.12 1016.59 1017.00 1017.34 1017.61 1017.84 1018.04 1018.25 1018.49 1018.76 1019.06 1019.36 1019.63 1019.82 1019.93 1019.94 1019.86 1019.71 1019.51 1019.30 1019.11 1018.96 1018.85 1018.81 1018.82 1018.87 1018.96 1019.09 1019.23 1019.39 1019.55 1019.70 1019.84 1019.95 1020.03 1020.09 1020.12 1020.13 1020.13
1014.15 1014.48 1014.90 1015.38 1015.88 1016.35 1016.77 1017.12 1017.39 1017.60 1017.79 1017.98 1018.20 1018.46 1018.74 1019.04 1019.32 1019.55 1019.71 1019.77 1019.74 1019.64 1019.48 1019.29 1019.10 1018.94 1018.81 1018.72 1018.69 1018.70 1018.75 1018.83 1018.94 1019.06 1019.19 1019.32 1019.43 1019.51 1019.58 1019.62 1019.63 1019.64 1019.65
1013.70 1014.08 1014.54 1015.05 1015.59 1016.09 1016.53 1016.90 1017.18 1017.40 1017.59 1017.76 1017.96 1018.19 1018.46 1018.75 1019.03 1019.28 1019.47 1019.59 1019.62 1019.57 1019.47 1019.32 1019.15 1018.98 1018.83 1018.71 1018.63 1018.58 1018.57 1018.60 1018.65 1018.72 1018.80 1018.89 1018.97 1019.03 1019.08 1019.10 1019.12 1019.13 1019.14
1013.15 1013.60 1014.12 1014.69 1015.27 1015.82 1016.31 1016.71 1017.03 1017.27 1017.46 1017.63 1017.81 1018.02 1018.26 1018.53 1018.81 1019.07 1019.29 1019.45 1019.54 1019.56 1019.51 1019.42 1019.28 1019.13 1018.97 1018.82 1018.68 1018.58 1018.49 1018.44 1018.42 1018.43 1018.45 1018.48 1018.52 1018.55 1018.57 1018.59 1018.60 1018.62 1018.64
1012.57 1013.09 1013.68 1014.31 1014.96 1015.57 1016.11 1016.57 1016.92 1017.20 1017.40 1017.58 1017.75 1017.95 1018.17 1018.42 1018.69 1018.95 1019.20 1019.40 1019.54 1019.62 1019.63 1019.59 1019.50 1019.37 1019.21 1019.03 1018.86 1018.69 1018.54 1018.41 1018.31 1018.23 1018.19 1018.16 1018.14 1018.14 1018.13 1018.13 1018.13 1018.14 1018.16
1011.99 1012.60 1013.27 1013.97 1014.68 1015.35 1015.95 1016.45 1016.86 1017.17 1017.40 1017.59 1017.76 1017.95 1018.15 1018.39 1018.65 1018.91 1019.17 1019.40 1019.59 1019.73 1019.80 1019.81 1019.77 1019.66 1019.51 1019.33 1019.13 1018.91 1018.69 1018.49 1018.32 1018.17 1018.05 1017.96 1017.89 1017.83 1017.79 1017.75 1017.73 1017.71 1017.72
1011.49 1012.17 1012.91 1013.68 1014.44 1015.16 1015.81 1016.36 1016.80 1017.14 1017.40 1017.61 1017.79 1017.97 1018.17 1018.40 1018.65 1018.91 1019.18 1019.43 1019.65 1019.83 1019.96 1020.02 1020.01 1019.95 1019.82 1019.64 1019.42 1019.18 1018.92 1018.67 1018.44 1018.23 1018.04 1017.89 1017.76 1017.65 1017.56 1017.49 1017.42 1017.37 1017.35
1011.09 1011.84 1012.64 1013.45 1014.25 1015.01 1015.68 1016.26 1016.73 1017.09 1017.38 1017.60 1017.79 1017.98 1018.17 1018.39 1018.63 1018.89 1019.15 1019.41 1019.65 1019.86 1020.02 1020.12 1020.16 1020.13 1020.03 1019.88 1019.67 1019.43 1019.16 1018.88 1018.61 1018.36 1018.14 1017.93 1017.76 1017.60 1017.46 1017.34 1017.23 1017.13 1017.06
1010.82 1011.62 1012.46 1013.30 1014.12 1014.88 1015.56 1016.14 1016.62 1017.00 1017.29 1017.53 1017.73 1017.92 1018.12 1018.33 1018.55 1018.80 1019.05 1019.31 1019.55 1019.76 1019.94 1020.07 1020.14 1020.15 1020.10 1019.98 1019.81 1019.59 1019.33 1019.07 1018.79 1018.53 1018.28 1018.06 1017.85 1017.66 1017.48 1017.31 1017.15 1017.01 1016.88
1010.69 1011.52 1012.38 1013.23 1014.04 1014.79 1015.45 1016.02 1016.48 1016.86 1017.15 1017.40 1017.61 1017.80 1018.00 1018.20 1018.41 1018.63 1018.86 1019.09 1019.31 1019.52 1019.70 1019.84 1019.94 1019.99 1019.98 1019.91 1019.79 1019.62 1019.41 1019.17 1018.93 1018.68 1018.44 1018.21 1018.00 1017.79 1017.59 1017.39 1017.19 1017.00 1016.83
1010.69 1011.54 1012.40 1013.23 1014.02 1014.73 1015.36 1015.89 1016.33 1016.69 1016.98 1017.23 1017.44 1017.64 1017.83 1018.02 1018.21 1018.41 1018.60 1018.79 1018.98 1019.16 1019.33 1019.48 1019.59 1019.67 1019.70 1019.69 1019.63 1019.52 1019.37 1019.19 1018.99 1018.78 1018.57 1018.37 1018.16 1017.96 1017.76 1017.55 1017.34 1017.12 1016.91
1010.84 1011.68 1012.51 1013.31 1014.05 1014.71 1015.29 1015.77 1016.18 1016.52 1016.80 1017.04 1017.26 1017.47 1017.66 1017.84 1018.01 1018.17 1018.33 1018.48 1018.63 1018.77 1018.91 1019.05 1019.17 1019.27 1019.35 1019.38 1019.38 1019.33 1019.24 1019.12 1018.98 1018.83 1018.66 1018.49 1018.33 1018.15 1017.97 1017.77 1017.57 1017.35 1017.12
1011.11 1011.92 1012.71 1013.46 1014.13 1014.73 1015.24 1015.67 1016.04 1016.35 1016.63 1016.88 1017.11 1017.32 1017.52 1017.70 1017.85 1017.99 1018.11 1018.22 1018.33 1018.43 1018.55 1018.67 1018.79 1018.91 1019.01 1019.08 1019.13 1019.13 1019.10 1019.04 1018.94 1018.84 1018.72 1018.60 1018.47 1018.33 1018.19 1018.02 1017.84 1017.64 1017.43
1011.47 1012.24 1012.96 1013.63 1014.23 1014.74 1015.18 1015.56 1015.89 1016.18 1016.46 1016.72 1016.97 1017.21 1017.42 1017.61 1017.76 1017.89 1017.99 1018.07 1018.14 1018.22 1018.32 1018.42 1018.54 1018.67 1018.79 1018.89 1018.97 1019.01 1019.01 1018.98 1018.92 1018.85 1018.77 1018.68 1018.59 1018.49 1018.39 1018.27 1018.13 1017.96 1017.77
Thickness
5753 5752 5751 5750 5749 5749 5748 5747 5746 5746 5745 5744 5742 5740 5738 5735 5733 5731 5729 5727 5725 5724 5722 5721 5719 5717 5715 5713 5712 5710 5709 5708 5706 5705 5704 5704 5703 5701 5701 5700 5699 5698 5698
5754 5752 5750 5750 5749 5749 5748 5747 5746 5745 5744 5743 5742 5740 5738 5735 5733 5731 5729 5727 5726 5724 5723 5721 5719 5717 5715 5713 5712 5710 5709 5707 5706 5705 5704 5703 5702 5701 5700 5699 5699 5698 5697
5755 5753 5751 5750 5750 5749 5748 5747 5746 5745 5744 5743 5741 5740 5737 5735 5733 5731 5729 5728 5726 5725 5723 5721 5719 5718 5716 5714 5712 5710 5709 5707 5706 5705 5704 5703 5702 5701 5700 5699 5699 5698 5697
5756 5754 5752 5751 5751 5749 5748 5747 5745 5743 5742 5741 5739 5738 5737 5735 5733 5731 5729 5728 5726 5725 5723 5722 5720 5718 5716 5715 5713 5711 5709 5708 5706 5705 5704 5703 5702 5701 5700 5699 5698 5697 5697
5756 5754 5753 5752 5751 5750 5748 5747 5745 5743 5740 5739 5738 5737 5737 5735 5734 5732 5730 5728 5727 5725 5724 5722 5721 5719 5717 5715 5714 5712 5710 5708 5707 5705 5704 5703 5702 5701 5700 5699 5698 5697 5696
5755 5754 5753 5752 5751 5749 5747 5746 5744 5742 5740 5739 5739 5737 5736 5735 5734 5733 5731 5729 5727 5726 5725 5723 5722 5720 5718 5717 5715 5713 5711 5709 5708 5706 5705 5704 5702 5701 5700 5699 5698 5697 5696
5755 5754 5752 5751 5750 5748 5747 5746 5743 5741 5739 5739 5734 5730 5732 5734 5734 5734 5733 5731 5729 5727 5725 5724 5723 5721 5720 5718 5716 5714 5712 5710 5709 5707 5706 5704 5703 5702 5700 5699 5698 5697 5695
5754 5753 5752 5750 5749 5748 5746 5745 5743 5739 5738 5738 5732 5725 5722 5724 5730 5734 5733 5732 5730 5729 5727 5726 5724 5723 5721 5719 5717 5715 5713 5711 5710 5708 5707 5705 5703 5702 5700 5699 5698 5697 5695
5753 5753 5752 5750 5749 5747 5745 5744 5743 5740 5736 5736 5736 5729 5720 5716 5722 5729 5732 5733 5731 5730 5728 5727 5726 5724 5723 5721 5719 5717 5715 5713 5711 5709 5707 5705 5704 5702 5701 5699 5698 5697 5695
5752 5752 5751 5750 5749 5747 5746 5745 5744 5742 5738 5734 5734 5734 5732 5729 5722 5720 5727 5731 5732 5731 5730 5729 5727 5726 5724 5722 5721 5719 5716 5714 5712 5710 5709 5707 5705 5703 5701 5700 5698 5697 5695
5752 5751 5750 5749 5748 5747 5746 5745 5744 5742 5740 5736 5734 5733 5731 5730 5728 5722 5719 5724 5728 5731 5732 5730 5729 5728 5726 5724 5722 5720 5718 5716 5713 5711 5710 5708 5706 5704 5702 5700 5698 5697 5695
5751 5750 5750 5749 5748 5747 5745 5744 5743 5742 5740 5738 5736 5734 5731 5728 5726 5724 5720 5721 5723 5729 5732 5732 5730 5729 5727 5725 5724 5722 5720 5717 5715 5712 5710 5708 5706 5704 5702 5700 5698 5697 5695
5748 5749 5749 5748 5747 5746 5746 5744 5742 5741 5740 5738 5736 5735 5734 5733 5731 5728 5724 5721 5721 5725 5729 5731 5732 5731 5729 5727 5725 5723 5721 5718 5716 5713 5711 5709 5707 5705 5703 5700 5698 5696 5695
5750 5751 5749 5748 5747 5746 5745 5744 5742 5741 5740 5738 5737 5736 5734 5734 5733 5731 5728 5723 5718 5719 5722 5727 5731 5732 5730 5728 5727 5724 5722 5719 5717 5714 5712 5709 5707 5705 5703 5700 5698 5696 5694
5752 5750 5749 5748 5747 5746 5745 5743 5741 5739 5738 5737 5736 5735 5734 5734 5733 5733 5731 5727 5720 5713 5715 5722 5726 5731 5731 5729 5727 5724 5722 5720 5717 5715 5712 5710 5707 5705 5703 5700 5698 5696 5694
5751 5750 5748 5747 5746 5745 5744 5742 5740 5739 5736 5736 5735 5734 5733 5733 5732 5732 5730 5728 5725 5720 5715 5721 5724 5728 5729 5728 5726 5724 5721 5719 5717 5715 5712 5710 5707 5705 5702 5700 5697 5695 5693
5750 5749 5748 5746 5744 5743 5742 5740 5738 5737 5735 5734 5733 5732 5732 5732 5730 5730 5728 5726 5724 5721 5715 5718 5722 5725 5725 5724 5724 5722 5720 5717 5715 5713 5711 5709 5707 5704 5702 5699 5697 5694 5692
5749 5748 5747 5745 5743 5742 5741 5739 5737 5736 5734 5732 5732 5730 5730 5730 5728 5727 5726 5723 5722 5720 5716 5714 5716 5719 5720 5720 5720 5718 5717 5715 5714 5712 5710 5708 5706 5703 5701 5698 5695 5693 5690
5748 5747 5745 5743 5742 5741 5739 5738 5737 5736 5734 5733 5732 5729 5729 5727 5725 5725 5723 5721 5719 5719 5716 5713 5712 5714 5714 5715 5713 5712 5712 5711 5711 5709 5708 5706 5704 5701 5699 5696 5694 5691 5688
5746 5745 5743 5742 5741 5740 5739 5737 5736 5734 5733 5732 5731 5730 5728 5726 5724 5723 5721 5719 5717 5715 5712 5710 5708 5708 5708 5709 5708 5705 5704 5705 5705 5706 5704 5702 5701 5699 5696 5694 5691 5688 5685
5745 5743 5741 5740 5739 5738 5737 5736 5735 5733 5731 5730 5729 5729 5728 5726 5725 5723 5721 5718 5715 5711 5708 5706 5704 5703 5702 5702 5701 5701 5699 5699 5699 5699 5697 5697 5695 5693 5691 5689 5686 5684 5682
5742 5740 5739 5737 5736 5736 5736 5734 5733 5731 5729 5728 5726 5725 5724 5723 5723 5721 5720 5718 5715 5710 5706 5703 5701 5699 5699 5699 5699 5697 5694 5690 5688 5692 5689 5689 5688 5686 5684 5683 5681 5680 5677
5740 5737 5736 5734 5733 5732 5732 5731 5730 5728 5727 5725 5724 5722 5721 5722 5720 5718 5716 5714 5712 5710 5708 5704 5700 5699 5697 5697 5694 5691 5688 5685 5684 5685 5682 5680 5680 5678 5678 5677 5675 5673 5670
5737 5735 5733 5731 5730 5729 5728 5727 5726 5725 5723 5723 5721 5720 5718 5717 5716 5714 5711 5709 5707 5706 5705 5702 5700 5698 5696 5694 5691 5689 5685 5681 5680 5678 5676 5672 5672 5671 5672 5670 5668 5666 5663
5733 5731 5729 5727 5726 5725 5724 5723 5722 5720 5719 5718 5717 5716 5715 5713 5712 5710 5706 5703 5701 5700 5700 5699 5697 5694 5691 5688 5686 5681 5677 5672 5669 5669 5668 5665 5664 5662 5661 5661 5660 5658 5655
5729 5727 5725 5723 5721 5720 5720 5719 5717 5716 5713 5711 5711 5710 5709 5708 5706 5704 5701 5698 5694 5693 5692 5691 5689 5687 5684 5682 5679 5675 5671 5665 5662 5659 5661 5657 5655 5652 5650 5651 5649 5647 5644